*** The Vicarage Weather Feed ***

NOAA NWS Hourly Roundups by Site

Regional Weather Roundup for Omaha, NE

To Select Another Site Choose from List

Select Site:  

000
ASUS43 KOAX 120610
RWRNE

WEATHER ROUNDUP FOR NEBRASKA
NATIONAL WEATHER SERVICE OMAHA NE
100 AM CDT SUN JUL 12 2020

NOTES: SATELLITE DATA IS BEING USED TO AUGMENT CLOUD COVER ABOVE
       12000 FEET.
       "FAIR" INDICATES FEW OR NO CLOUDS BELOW 12,000 FEET WITH NO
       SIGNIFICANT WEATHER AND/OR OBSTRUCTIONS TO VISIBILITY.


NEZ001>004-019>022-054>056-120700-
NEBRASKA PANHANDLE

CITY           SKY/WX    TMP DP  RH WIND       PRES   REMARKS
SCOTTSBLUFF    CLEAR     70  54  56 E14       30.12S
6HR MIN TEMP:  70; 6HR MAX TEMP:  92;

ALLIANCE       CLEAR     61  51  70 MISG      30.14S
6HR MIN TEMP:  61; 6HR MAX TEMP:  86;

CHADRON        CLEAR     65  50  58 NE7       30.12S
6HR MIN TEMP:  65; 6HR MAX TEMP:  92;

GORDON         FAIR      58  51  76 NE8       30.16R
6HR MIN TEMP:  58; 6HR MAX TEMP:  85;

KIMBALL        CLEAR     69  56  64 SE12      30.18S
SIDNEY           N/A    N/A N/A N/A MISG      30.15S
$$

NEZ057>060-069>072-079>082-120700-
SOUTHWEST NEBRASKA

CITY           SKY/WX    TMP DP  RH WIND       PRES   REMARKS
NORTH PLATTE   CLEAR     65  58  78 CALM      30.11R
6HR MIN TEMP:  62; 6HR MAX TEMP:  82;

IMPERIAL       CLEAR     65  59  81 MISG      30.13S
6HR MIN TEMP:  65; 6HR MAX TEMP:  89;

LEXINGTON      CLEAR     61  58  91 W5        30.09R
MCCOOK         CLEAR     65  61  87 CALM      30.10S
6HR MIN TEMP:  65; 6HR MAX TEMP:  87;

OGALLALA       CLEAR     66  53  64 E3        30.14R
$$

NEZ005>010-023>029-035>040-094-120700-
NORTH CENTRAL NEBRASKA

CITY           SKY/WX    TMP DP  RH WIND       PRES   REMARKS
VALENTINE      CLEAR     62  56  80 W3        30.11R
6HR MIN TEMP:  61; 6HR MAX TEMP:  86;

AINSWORTH      CLEAR     65  56  72 NE3       30.10S
BROKEN BOW     CLEAR     62  60  93 MISG      30.08R
6HR MIN TEMP:  62; 6HR MAX TEMP:  83;

O`NEILL        CLEAR     62  57  82 CALM      30.07S
ORD            CLEAR     61  59  93 CALM      30.05R
6HR MIN TEMP:  61; 6HR MAX TEMP:  82;

THEDFORD       CLEAR     62  59  89 W3        30.13R
$$

NEZ041-046>049-061>064-073>077-083>087-120700-
SOUTH CENTRAL NEBRASKA

CITY           SKY/WX    TMP DP  RH WIND       PRES   REMARKS
GRAND ISLAND   CLEAR     67  62  84 CALM      30.05R
6HR MIN TEMP:  66; 6HR MAX TEMP:  84;

AURORA         CLEAR     65  63  93 NW3       30.04S
HASTINGS       CLEAR     66  62  87 CALM      30.06S
6HR MIN TEMP:  66; 6HR MAX TEMP:  85;

HEBRON         CLEAR     66  63  89 CALM      30.04R
HOLDREGE       CLEAR     64  60  87 CALM      30.05F
KEARNEY        CLEAR     65  61  87 CALM      30.06F
YORK           CLEAR     64  63  94 CALM      30.02S
$$

NEZ011>018-030>034-042>045-120700-
NORTHEAST NEBRASKA

CITY           SKY/WX    TMP DP  RH WIND       PRES   REMARKS
NORFOLK        CLEAR     64  58  80 NW6       30.02R
6HR MIN TEMP:  64; 6HR MAX TEMP:  83;

ALBION         CLEAR     62  61  97 NW5       30.04S
BLAIR          CLEAR     68  60  75 NW6       29.97R
COLUMBUS       CLEAR     65  62  90 W5        30.02R
FREMONT        CLEAR     65  62  89 W6        29.98R
TEKAMAH        CLEAR     62  59  90 NW3       29.96S
6HR MIN TEMP:  61; 6HR MAX TEMP:  82;

WAYNE          CLEAR     62  59  91 CALM      30.01S
$$

NEZ050>053-065>068-078-088>093-120700-
SOUTHEAST NEBRASKA

CITY           SKY/WX    TMP DP  RH WIND       PRES   REMARKS
LINCOLN        CLEAR     65  60  84 CALM      30.00R
6HR MIN TEMP:  64; 6HR MAX TEMP:  86;

OMAHA EPPLEY   CLEAR     66  61  84 NW3       29.95S
6HR MIN TEMP:  66; 6HR MAX TEMP:  85;

BEATRICE       CLEAR     65  61  87 SW5       30.02R
FALLS CITY     CLEAR     68  58  70 W5        29.98R
6HR MIN TEMP:  67; 6HR MAX TEMP:  86;

NEBRASKA CITY  CLEAR     67  60  76 NW5       29.98R
PLATTSMOUTH    CLEAR     67  58  71 W5        29.97R
$$

NEZ044-045-051>053-067-120700-
OMAHA AREA

CITY           SKY/WX    TMP DP  RH WIND       PRES   REMARKS
OMAHA EPPLEY   CLEAR     66  61  84 NW3       29.95S
6HR MIN TEMP:  66; 6HR MAX TEMP:  85;

BLAIR          CLEAR     68  60  75 NW6       29.97R
FREMONT        CLEAR     65  62  89 W6        29.98R
MILLARD        CLEAR     69  61  74 CALM      29.96S
OFFUTT AFB     CLEAR     66  58  77 CALM      29.95S
PLATTSMOUTH    CLEAR     67  58  71 W5        29.97R
WAHOO          FAIR      66  61  82 NW3       29.98S
$$



 

View Past Reports for Omaha, NE.

Products Courtesy of NOAA-NWS
NWS Information Parsing Script by Ken True at Saratoga Weather - Script by SE Lincoln Weather.

This data is offered only as a general guide to local weather conditions. It should not be relied upon in lieu of officially disseminated weather information for determining possible risk to persons or property. This site, including all information contained therein, is made available as is without warranties of any kind, either express or implied. The Vicarage Weather Feed© includes links to other sites for user convenience only. The content of any linked third-party site is not controlled by The Vicarage Weather Feed©. Access to any third-party website through The Vicarage Weather Feed©, regardless of whether or not the third-party site is a linked site, is entirely at the users own risk. Externally sourced content or material is excluded from The Vicarage Weather Feed© copyright and is the copyright and property of the respective provider. Skywarn® and the Skywarn® logo are registered trademarks of the National Oceanic and Atmospheric Administration, used with permission.